owner,sensor,date,latitude,longitude,vertical_datum,wind_speed,wind_to_direction,wind_speed_of_gust,qcFlag 
DISL,ioos:station:DISL:MBLA:1,2014-10-01T00:00:00Z,30.4367,-88.0117,14.2,4.56,83.8,-9999.0,'1111122,1111122,1111122' 
DISL,ioos:station:DISL:MBLA:1,2014-10-01T00:30:00Z,30.4367,-88.0117,14.2,4.43,89.0,-9999.0,'1111122,1111122,1111122' 
DISL,ioos:station:DISL:MBLA:1,2014-10-01T01:00:00Z,30.4367,-88.0117,14.2,4.4,88.7,-9999.0,'1111122,1111122,1111122' 
DISL,ioos:station:DISL:MBLA:1,2014-10-01T01:30:00Z,30.4367,-88.0117,14.2,3.96,105.2,-9999.0,'1111122,1111122,1111122' 
DISL,ioos:station:DISL:MBLA:1,2014-10-01T02:00:00Z,30.4367,-88.0117,14.2,5.82,105.3,-9999.0,'1111122,1111122,1111122' 
DISL,ioos:station:DISL:MBLA:1,2014-10-01T02:30:00Z,30.4367,-88.0117,14.2,5.28,108.6,-9999.0,'1111122,1111122,1111122' 
DISL,ioos:station:DISL:MBLA:1,2014-10-01T03:00:00Z,30.4367,-88.0117,14.2,6.34,108.6,-9999.0,'1111122,1111122,1111122' 
DISL,ioos:station:DISL:MBLA:1,2014-10-01T03:30:00Z,30.4367,-88.0117,14.2,6.39,108.5,-9999.0,'1111122,1111122,1111122' 
DISL,ioos:station:DISL:MBLA:1,2014-10-01T04:00:00Z,30.4367,-88.0117,14.2,6.22,105.3,-9999.0,'1111122,1111122,1111122' 
DISL,ioos:station:DISL:MBLA:1,2014-10-01T04:30:00Z,30.4367,-88.0117,14.2,6.25,107.7,-9999.0,'1111122,1111122,1111122' 
DISL,ioos:station:DISL:MBLA:1,2014-10-01T05:00:00Z,30.4367,-88.0117,14.2,6.29,104.1,-9999.0,'1111122,1111122,1111122' 
DISL,ioos:station:DISL:MBLA:1,2014-10-01T05:30:00Z,30.4367,-88.0117,14.2,5.57,103.0,-9999.0,'1111122,1111122,1111122' 
DISL,ioos:station:DISL:MBLA:1,2014-10-01T06:00:00Z,30.4367,-88.0117,14.2,4.28,106.1,-9999.0,'1111122,1111122,1111122' 
DISL,ioos:station:DISL:MBLA:1,2014-10-01T06:30:00Z,30.4367,-88.0117,14.2,4.51,97.0,-9999.0,'1111122,1111122,1111122' 
DISL,ioos:station:DISL:MBLA:1,2014-10-01T07:00:00Z,30.4367,-88.0117,14.2,5.07,95.4,-9999.0,'1111122,1111122,1111122' 
DISL,ioos:station:DISL:MBLA:1,2014-10-01T07:30:00Z,30.4367,-88.0117,14.2,4.35,101.4,-9999.0,'1111122,1111122,1111122' 
DISL,ioos:station:DISL:MBLA:1,2014-10-01T08:00:00Z,30.4367,-88.0117,14.2,4.17,94.9,-9999.0,'1111122,1111122,1111122' 
DISL,ioos:station:DISL:MBLA:1,2014-10-01T08:30:00Z,30.4367,-88.0117,14.2,4.09,81.9,-9999.0,'1111122,1111122,1111122' 
DISL,ioos:station:DISL:MBLA:1,2014-10-01T09:00:00Z,30.4367,-88.0117,14.2,3.02,82.0,-9999.0,'1111122,1111122,1111122' 
DISL,ioos:station:DISL:MBLA:1,2014-10-01T09:30:00Z,30.4367,-88.0117,14.2,4.17,88.0,-9999.0,'1111122,1111122,1111122' 
DISL,ioos:station:DISL:MBLA:1,2014-10-01T10:00:00Z,30.4367,-88.0117,14.2,4.84,86.4,-9999.0,'1111122,1111122,1111122' 
DISL,ioos:station:DISL:MBLA:1,2014-10-01T10:30:00Z,30.4367,-88.0117,14.2,4.68,73.36,-9999.0,'1111122,1111122,1111122' 
DISL,ioos:station:DISL:MBLA:1,2014-10-01T11:00:00Z,30.4367,-88.0117,14.2,4.27,85.4,-9999.0,'1111122,1111122,1111122' 
DISL,ioos:station:DISL:MBLA:1,2014-10-01T11:30:00Z,30.4367,-88.0117,14.2,4.53,80.6,-9999.0,'1111122,1111122,1111122' 
DISL,ioos:station:DISL:MBLA:1,2014-10-01T12:00:00Z,30.4367,-88.0117,14.2,4.99,81.6,-9999.0,'1111122,1111122,1111122' 
DISL,ioos:station:DISL:MBLA:1,2014-10-01T12:30:00Z,30.4367,-88.0117,14.2,4.97,83.4,-9999.0,'1111122,1111122,1111122' 
DISL,ioos:station:DISL:MBLA:1,2014-10-01T13:00:00Z,30.4367,-88.0117,14.2,5.81,83.9,-9999.0,'1111122,1111122,1111122' 
DISL,ioos:station:DISL:MBLA:1,2014-10-01T13:30:00Z,30.4367,-88.0117,14.2,5.08,68.31,-9999.0,'1111122,1111122,1111122' 
DISL,ioos:station:DISL:MBLA:1,2014-10-01T14:00:00Z,30.4367,-88.0117,14.2,5.71,76.89,-9999.0,'1111122,1111122,1111122' 
DISL,ioos:station:DISL:MBLA:1,2014-10-01T14:30:00Z,30.4367,-88.0117,14.2,5.73,85.0,-9999.0,'1111122,1111122,1111122' 
DISL,ioos:station:DISL:MBLA:1,2014-10-01T15:00:00Z,30.4367,-88.0117,14.2,4.71,83.7,-9999.0,'1111122,1111122,1111122' 
DISL,ioos:station:DISL:MBLA:1,2014-10-01T15:30:00Z,30.4367,-88.0117,14.2,3.05,85.7,-9999.0,'1111122,1111122,1111122' 
DISL,ioos:station:DISL:MBLA:1,2014-10-01T16:00:00Z,30.4367,-88.0117,14.2,2.41,100.6,-9999.0,'1111122,1111122,1111122' 
DISL,ioos:station:DISL:MBLA:1,2014-10-01T16:30:00Z,30.4367,-88.0117,14.2,1.88,127.0,-9999.0,'1111122,1111122,1111122' 
DISL,ioos:station:DISL:MBLA:1,2014-10-01T17:00:00Z,30.4367,-88.0117,14.2,2.13,137.5,-9999.0,'1111122,1111122,1111122' 
DISL,ioos:station:DISL:MBLA:1,2014-10-01T17:30:00Z,30.4367,-88.0117,14.2,1.71,123.6,-9999.0,'1111122,1111122,1111122' 
DISL,ioos:station:DISL:MBLA:1,2014-10-01T18:00:00Z,30.4367,-88.0117,14.2,0.67,164.0,-9999.0,'1111122,1111122,1111122' 
DISL,ioos:station:DISL:MBLA:1,2014-10-01T18:30:00Z,30.4367,-88.0117,14.2,1.18,158.7,-9999.0,'1111122,1111122,1111122' 
DISL,ioos:station:DISL:MBLA:1,2014-10-01T19:00:00Z,30.4367,-88.0117,14.2,3.61,147.9,-9999.0,'1111122,1111122,1111122' 
DISL,ioos:station:DISL:MBLA:1,2014-10-01T19:30:00Z,30.4367,-88.0117,14.2,3.7,146.5,-9999.0,'1111122,1111122,1111122' 
DISL,ioos:station:DISL:MBLA:1,2014-10-01T20:00:00Z,30.4367,-88.0117,14.2,4.35,153.1,-9999.0,'1111122,1111122,1111122' 
DISL,ioos:station:DISL:MBLA:1,2014-10-01T20:30:00Z,30.4367,-88.0117,14.2,4.74,164.6,-9999.0,'1111122,1111122,1111122' 
DISL,ioos:station:DISL:MBLA:1,2014-10-01T21:00:00Z,30.4367,-88.0117,14.2,5.59,155.2,-9999.0,'1111122,1111122,1111122' 
DISL,ioos:station:DISL:MBLA:1,2014-10-01T21:30:00Z,30.4367,-88.0117,14.2,5.47,149.0,-9999.0,'1111122,1111122,1111122' 
DISL,ioos:station:DISL:MBLA:1,2014-10-01T22:00:00Z,30.4367,-88.0117,14.2,5.23,149.1,-9999.0,'1111122,1111122,1111122' 
DISL,ioos:station:DISL:MBLA:1,2014-10-01T22:30:00Z,30.4367,-88.0117,14.2,5.53,144.2,-9999.0,'1111122,1111122,1111122' 
DISL,ioos:station:DISL:MBLA:1,2014-10-01T23:00:00Z,30.4367,-88.0117,14.2,6.1,139.7,-9999.0,'1111122,1111122,1111122' 
DISL,ioos:station:DISL:MBLA:1,2014-10-01T23:30:00Z,30.4367,-88.0117,14.2,6.34,136.3,-9999.0,'1111122,1111122,1111122' 
DISL,ioos:station:DISL:MBLA:1,2014-10-02T00:00:00Z,30.4367,-88.0117,14.2,6.43,144.2,-9999.0,'1111122,1111122,1111122' 
DISL,ioos:station:DISL:MBLA:1,2014-10-02T00:30:00Z,30.4367,-88.0117,14.2,6.22,142.6,-9999.0,'1111122,1111122,1111122' 
DISL,ioos:station:DISL:MBLA:1,2014-10-02T01:00:00Z,30.4367,-88.0117,14.2,5.24,136.3,-9999.0,'1111122,1111122,1111122' 
DISL,ioos:station:DISL:MBLA:1,2014-10-02T01:30:00Z,30.4367,-88.0117,14.2,5.24,143.9,-9999.0,'1111122,1111122,1111122' 
DISL,ioos:station:DISL:MBLA:1,2014-10-02T02:00:00Z,30.4367,-88.0117,14.2,4.97,142.2,-9999.0,'1111122,1111122,1111122' 
DISL,ioos:station:DISL:MBLA:1,2014-10-02T02:30:00Z,30.4367,-88.0117,14.2,5.03,137.3,-9999.0,'1111122,1111122,1111122' 
DISL,ioos:station:DISL:MBLA:1,2014-10-02T03:00:00Z,30.4367,-88.0117,14.2,4.99,137.0,-9999.0,'1111122,1111122,1111122' 
DISL,ioos:station:DISL:MBLA:1,2014-10-02T03:30:00Z,30.4367,-88.0117,14.2,5.15,138.5,-9999.0,'1111122,1111122,1111122' 
DISL,ioos:station:DISL:MBLA:1,2014-10-02T04:00:00Z,30.4367,-88.0117,14.2,4.46,136.7,-9999.0,'1111122,1111122,1111122' 
DISL,ioos:station:DISL:MBLA:1,2014-10-02T04:30:00Z,30.4367,-88.0117,14.2,4.97,135.3,-9999.0,'1111122,1111122,1111122' 
DISL,ioos:station:DISL:MBLA:1,2014-10-02T05:00:00Z,30.4367,-88.0117,14.2,5.22,132.5,-9999.0,'1111122,1111122,1111122' 
DISL,ioos:station:DISL:MBLA:1,2014-10-02T05:30:00Z,30.4367,-88.0117,14.2,3.99,117.7,-9999.0,'1111122,1111122,1111122' 
DISL,ioos:station:DISL:MBLA:1,2014-10-02T06:00:00Z,30.4367,-88.0117,14.2,3.83,113.0,-9999.0,'1111122,1111122,1111122' 
DISL,ioos:station:DISL:MBLA:1,2014-10-02T06:30:00Z,30.4367,-88.0117,14.2,3.73,107.4,-9999.0,'1111122,1111122,1111122' 
DISL,ioos:station:DISL:MBLA:1,2014-10-02T07:00:00Z,30.4367,-88.0117,14.2,3.75,120.3,-9999.0,'1111122,1111122,1111122' 
DISL,ioos:station:DISL:MBLA:1,2014-10-02T07:30:00Z,30.4367,-88.0117,14.2,4.04,112.5,-9999.0,'1111122,1111122,1111122' 
DISL,ioos:station:DISL:MBLA:1,2014-10-02T08:00:00Z,30.4367,-88.0117,14.2,3.58,110.8,-9999.0,'1111122,1111122,1111122' 
DISL,ioos:station:DISL:MBLA:1,2014-10-02T08:30:00Z,30.4367,-88.0117,14.2,3.58,114.3,-9999.0,'1111122,1111122,1111122' 
DISL,ioos:station:DISL:MBLA:1,2014-10-02T09:00:00Z,30.4367,-88.0117,14.2,3.49,115.2,-9999.0,'1111122,1111122,1111122' 
DISL,ioos:station:DISL:MBLA:1,2014-10-02T09:30:00Z,30.4367,-88.0117,14.2,3.33,111.6,-9999.0,'1111122,1111122,1111122' 
DISL,ioos:station:DISL:MBLA:1,2014-10-02T10:00:00Z,30.4367,-88.0117,14.2,3.77,115.7,-9999.0,'1111122,1111122,1111122' 
DISL,ioos:station:DISL:MBLA:1,2014-10-02T10:30:00Z,30.4367,-88.0117,14.2,3.08,114.9,-9999.0,'1111122,1111122,1111122' 
DISL,ioos:station:DISL:MBLA:1,2014-10-02T11:00:00Z,30.4367,-88.0117,14.2,2.65,107.6,-9999.0,'1111122,1111122,1111122' 
DISL,ioos:station:DISL:MBLA:1,2014-10-02T11:30:00Z,30.4367,-88.0117,14.2,2.84,96.3,-9999.0,'1111122,1111122,1111122' 
DISL,ioos:station:DISL:MBLA:1,2014-10-02T12:00:00Z,30.4367,-88.0117,14.2,3.69,97.2,-9999.0,'1111122,1111122,1111122' 
DISL,ioos:station:DISL:MBLA:1,2014-10-02T12:30:00Z,30.4367,-88.0117,14.2,3.85,98.5,-9999.0,'1111122,1111122,1111122' 
DISL,ioos:station:DISL:MBLA:1,2014-10-02T13:00:00Z,30.4367,-88.0117,14.2,3.75,101.5,-9999.0,'1111122,1111122,1111122' 
DISL,ioos:station:DISL:MBLA:1,2014-10-02T13:30:00Z,30.4367,-88.0117,14.2,4.09,105.2,-9999.0,'1111122,1111122,1111122' 
DISL,ioos:station:DISL:MBLA:1,2014-10-02T14:00:00Z,30.4367,-88.0117,14.2,3.83,112.3,-9999.0,'1111122,1111122,1111122' 
DISL,ioos:station:DISL:MBLA:1,2014-10-02T14:30:00Z,30.4367,-88.0117,14.2,4.21,119.8,-9999.0,'1111122,1111122,1111122' 
DISL,ioos:station:DISL:MBLA:1,2014-10-02T15:00:00Z,30.4367,-88.0117,14.2,4.78,126.7,-9999.0,'1111122,1111122,1111122' 
DISL,ioos:station:DISL:MBLA:1,2014-10-02T15:30:00Z,30.4367,-88.0117,14.2,4.52,127.7,-9999.0,'1111122,1111122,1111122' 
DISL,ioos:station:DISL:MBLA:1,2014-10-02T16:00:00Z,30.4367,-88.0117,14.2,4.38,134.0,-9999.0,'1111122,1111122,1111122' 
DISL,ioos:station:DISL:MBLA:1,2014-10-02T16:30:00Z,30.4367,-88.0117,14.2,5.31,149.6,-9999.0,'1111122,1111122,1111122' 
DISL,ioos:station:DISL:MBLA:1,2014-10-02T17:00:00Z,30.4367,-88.0117,14.2,5.35,151.7,-9999.0,'1111122,1111122,1111122' 
DISL,ioos:station:DISL:MBLA:1,2014-10-02T17:30:00Z,30.4367,-88.0117,14.2,6.43,164.5,-9999.0,'1111122,1111122,1111122' 
DISL,ioos:station:DISL:MBLA:1,2014-10-02T18:00:00Z,30.4367,-88.0117,14.2,5.49,156.6,-9999.0,'1111122,1111122,1111122' 
DISL,ioos:station:DISL:MBLA:1,2014-10-02T18:30:00Z,30.4367,-88.0117,14.2,6.09,173.6,-9999.0,'1111122,1111122,1111122' 
DISL,ioos:station:DISL:MBLA:1,2014-10-02T19:00:00Z,30.4367,-88.0117,14.2,6.55,170.1,-9999.0,'1111122,1111122,1111122' 
DISL,ioos:station:DISL:MBLA:1,2014-10-02T19:30:00Z,30.4367,-88.0117,14.2,6.65,173.5,-9999.0,'1111122,1111122,1111122' 
DISL,ioos:station:DISL:MBLA:1,2014-10-02T20:00:00Z,30.4367,-88.0117,14.2,5.56,164.8,-9999.0,'1111122,1111122,1111122' 
DISL,ioos:station:DISL:MBLA:1,2014-10-02T20:30:00Z,30.4367,-88.0117,14.2,7.59,170.1,-9999.0,'1111122,1111122,1111122' 
DISL,ioos:station:DISL:MBLA:1,2014-10-02T21:00:00Z,30.4367,-88.0117,14.2,6.79,168.9,-9999.0,'1111122,1111122,1111122' 
DISL,ioos:station:DISL:MBLA:1,2014-10-02T21:30:00Z,30.4367,-88.0117,14.2,5.26,148.7,-9999.0,'1111122,1111122,1111122' 
DISL,ioos:station:DISL:MBLA:1,2014-10-02T22:00:00Z,30.4367,-88.0117,14.2,6.65,165.9,-9999.0,'1111122,1111122,1111122' 
DISL,ioos:station:DISL:MBLA:1,2014-10-02T22:30:00Z,30.4367,-88.0117,14.2,5.72,164.6,-9999.0,'1111122,1111122,1111122' 
DISL,ioos:station:DISL:MBLA:1,2014-10-02T23:00:00Z,30.4367,-88.0117,14.2,5.64,156.3,-9999.0,'1111122,1111122,1111122' 
DISL,ioos:station:DISL:MBLA:1,2014-10-02T23:30:00Z,30.4367,-88.0117,14.2,6.1,157.8,-9999.0,'1111122,1111122,1111122' 
DISL,ioos:station:DISL:MBLA:1,2014-10-03T00:00:00Z,30.4367,-88.0117,14.2,5.98,153.4,-9999.0,'1111122,1111122,1111122' 
DISL,ioos:station:DISL:MBLA:1,2014-10-03T00:30:00Z,30.4367,-88.0117,14.2,6.53,151.4,-9999.0,'1111122,1111122,1111122' 
DISL,ioos:station:DISL:MBLA:1,2014-10-03T01:00:00Z,30.4367,-88.0117,14.2,7.08,149.3,-9999.0,'1111122,1111122,1111122' 
DISL,ioos:station:DISL:MBLA:1,2014-10-03T01:30:00Z,30.4367,-88.0117,14.2,7.03,157.8,-9999.0,'1111122,1111122,1111122' 
DISL,ioos:station:DISL:MBLA:1,2014-10-03T02:00:00Z,30.4367,-88.0117,14.2,6.74,156.2,-9999.0,'1111122,1111122,1111122' 
DISL,ioos:station:DISL:MBLA:1,2014-10-03T02:30:00Z,30.4367,-88.0117,14.2,6.89,156.3,-9999.0,'1111122,1111122,1111122' 
DISL,ioos:station:DISL:MBLA:1,2014-10-03T03:00:00Z,30.4367,-88.0117,14.2,6.52,158.9,-9999.0,'1111122,1111122,1111122' 
DISL,ioos:station:DISL:MBLA:1,2014-10-03T03:30:00Z,30.4367,-88.0117,14.2,7.62,159.3,-9999.0,'1111122,1111122,1111122' 
DISL,ioos:station:DISL:MBLA:1,2014-10-03T04:00:00Z,30.4367,-88.0117,14.2,7.53,166.5,-9999.0,'1111122,1111122,1111122' 
DISL,ioos:station:DISL:MBLA:1,2014-10-03T04:30:00Z,30.4367,-88.0117,14.2,7.89,170.4,-9999.0,'1111122,1111122,1111122' 
DISL,ioos:station:DISL:MBLA:1,2014-10-03T05:00:00Z,30.4367,-88.0117,14.2,7.78,173.2,-9999.0,'1111122,1111122,1111122' 
DISL,ioos:station:DISL:MBLA:1,2014-10-03T05:30:00Z,30.4367,-88.0117,14.2,6.83,176.1,-9999.0,'1111122,1111122,1111122' 
DISL,ioos:station:DISL:MBLA:1,2014-10-03T06:00:00Z,30.4367,-88.0117,14.2,6.24,184.0,-9999.0,'1111122,1111122,1111122' 
DISL,ioos:station:DISL:MBLA:1,2014-10-03T06:30:00Z,30.4367,-88.0117,14.2,6.35,175.5,-9999.0,'1111122,1111122,1111122' 
DISL,ioos:station:DISL:MBLA:1,2014-10-03T07:00:00Z,30.4367,-88.0117,14.2,6.27,183.6,-9999.0,'1111122,1111122,1111122' 
DISL,ioos:station:DISL:MBLA:1,2014-10-03T07:30:00Z,30.4367,-88.0117,14.2,6.19,192.9,-9999.0,'1111122,1111122,1111122' 
DISL,ioos:station:DISL:MBLA:1,2014-10-03T08:00:00Z,30.4367,-88.0117,14.2,6.84,184.6,-9999.0,'1111122,1111122,1111122' 
DISL,ioos:station:DISL:MBLA:1,2014-10-03T08:30:00Z,30.4367,-88.0117,14.2,7.77,198.2,-9999.0,'1111122,1111122,1111122' 
DISL,ioos:station:DISL:MBLA:1,2014-10-03T09:00:00Z,30.4367,-88.0117,14.2,7.69,206.9,-9999.0,'1111122,1111122,1111122' 
DISL,ioos:station:DISL:MBLA:1,2014-10-03T09:30:00Z,30.4367,-88.0117,14.2,8.15,205.0,-9999.0,'1111122,1111122,1111122' 
DISL,ioos:station:DISL:MBLA:1,2014-10-03T10:00:00Z,30.4367,-88.0117,14.2,6.43,224.7,-9999.0,'1111122,1111122,1111122' 
DISL,ioos:station:DISL:MBLA:1,2014-10-03T10:30:00Z,30.4367,-88.0117,14.2,7.61,218.8,-9999.0,'1111122,1111122,1111122' 
DISL,ioos:station:DISL:MBLA:1,2014-10-03T11:00:00Z,30.4367,-88.0117,14.2,6.73,215.4,-9999.0,'1111122,1111122,1111122' 
DISL,ioos:station:DISL:MBLA:1,2014-10-03T11:30:00Z,30.4367,-88.0117,14.2,5.94,209.7,-9999.0,'1111122,1111122,1111122' 
DISL,ioos:station:DISL:MBLA:1,2014-10-03T12:00:00Z,30.4367,-88.0117,14.2,5.95,208.0,-9999.0,'1111122,1111122,1111122' 
DISL,ioos:station:DISL:MBLA:1,2014-10-03T12:30:00Z,30.4367,-88.0117,14.2,12.48,258.7,-9999.0,'1111122,1111122,1111122' 
DISL,ioos:station:DISL:MBLA:1,2014-10-03T13:00:00Z,30.4367,-88.0117,14.2,10.63,317.3,-9999.0,'1111122,1111122,1111122' 
DISL,ioos:station:DISL:MBLA:1,2014-10-03T13:30:00Z,30.4367,-88.0117,14.2,8.4,316.3,-9999.0,'1111122,1111122,1111122' 
DISL,ioos:station:DISL:MBLA:1,2014-10-03T14:00:00Z,30.4367,-88.0117,14.2,5.42,306.8,-9999.0,'1111122,1111122,1111122' 
DISL,ioos:station:DISL:MBLA:1,2014-10-03T14:30:00Z,30.4367,-88.0117,14.2,1.93,216.9,-9999.0,'1111122,1111122,1111122' 
DISL,ioos:station:DISL:MBLA:1,2014-10-03T15:00:00Z,30.4367,-88.0117,14.2,4.35,298.3,-9999.0,'1111122,1111122,1111122' 
DISL,ioos:station:DISL:MBLA:1,2014-10-03T15:30:00Z,30.4367,-88.0117,14.2,2.09,265.8,-9999.0,'1111122,1111122,1111122' 
DISL,ioos:station:DISL:MBLA:1,2014-10-03T16:00:00Z,30.4367,-88.0117,14.2,0.73,230.1,-9999.0,'1111122,1111122,1111122' 
DISL,ioos:station:DISL:MBLA:1,2014-10-03T16:30:00Z,30.4367,-88.0117,14.2,2.08,190.8,-9999.0,'1111122,1111122,1111122' 
DISL,ioos:station:DISL:MBLA:1,2014-10-03T17:00:00Z,30.4367,-88.0117,14.2,3.22,229.0,-9999.0,'1111122,1111122,1111122' 
DISL,ioos:station:DISL:MBLA:1,2014-10-03T17:30:00Z,30.4367,-88.0117,14.2,3.17,288.2,-9999.0,'1111122,1111122,1111122' 
DISL,ioos:station:DISL:MBLA:1,2014-10-03T18:00:00Z,30.4367,-88.0117,14.2,3.07,291.8,-9999.0,'1111122,1111122,1111122' 
DISL,ioos:station:DISL:MBLA:1,2014-10-03T18:30:00Z,30.4367,-88.0117,14.2,3.21,320.8,-9999.0,'1111122,1111122,1111122' 
DISL,ioos:station:DISL:MBLA:1,2014-10-03T19:00:00Z,30.4367,-88.0117,14.2,3.55,3.251,-9999.0,'1111122,1111122,1111122' 
DISL,ioos:station:DISL:MBLA:1,2014-10-03T19:30:00Z,30.4367,-88.0117,14.2,2.63,29.19,-9999.0,'1111122,1111122,1111122' 
DISL,ioos:station:DISL:MBLA:1,2014-10-03T20:00:00Z,30.4367,-88.0117,14.2,2.94,328.8,-9999.0,'1111122,1111122,1111122' 
DISL,ioos:station:DISL:MBLA:1,2014-10-03T20:30:00Z,30.4367,-88.0117,14.2,5.42,347.3,-9999.0,'1111122,1111122,1111122' 
DISL,ioos:station:DISL:MBLA:1,2014-10-03T21:00:00Z,30.4367,-88.0117,14.2,4.68,337.8,-9999.0,'1111122,1111122,1111122' 
DISL,ioos:station:DISL:MBLA:1,2014-10-03T21:30:00Z,30.4367,-88.0117,14.2,5.81,339.9,-9999.0,'1111122,1111122,1111122' 
DISL,ioos:station:DISL:MBLA:1,2014-10-03T22:00:00Z,30.4367,-88.0117,14.2,4.22,341.9,-9999.0,'1111122,1111122,1111122' 
DISL,ioos:station:DISL:MBLA:1,2014-10-03T22:30:00Z,30.4367,-88.0117,14.2,5.12,319.8,-9999.0,'1111122,1111122,1111122' 
DISL,ioos:station:DISL:MBLA:1,2014-10-03T23:00:00Z,30.4367,-88.0117,14.2,5.54,337.0,-9999.0,'1111122,1111122,1111122' 
DISL,ioos:station:DISL:MBLA:1,2014-10-03T23:30:00Z,30.4367,-88.0117,14.2,7.69,325.8,-9999.0,'1111122,1111122,1111122' 
DISL,ioos:station:DISL:MBLA:1,2014-10-04T00:00:00Z,30.4367,-88.0117,14.2,8.71,326.5,-9999.0,'1111122,1111122,1111122' 
DISL,ioos:station:DISL:MBLA:1,2014-10-04T00:30:00Z,30.4367,-88.0117,14.2,8.39,329.4,-9999.0,'1111122,1111122,1111122' 
DISL,ioos:station:DISL:MBLA:1,2014-10-04T01:00:00Z,30.4367,-88.0117,14.2,7.45,340.8,-9999.0,'1111122,1111122,1111122' 
DISL,ioos:station:DISL:MBLA:1,2014-10-04T01:30:00Z,30.4367,-88.0117,14.2,6.08,337.3,-9999.0,'1111122,1111122,1111122' 
DISL,ioos:station:DISL:MBLA:1,2014-10-04T02:00:00Z,30.4367,-88.0117,14.2,5.19,328.7,-9999.0,'1111122,1111122,1111122' 
DISL,ioos:station:DISL:MBLA:1,2014-10-04T02:30:00Z,30.4367,-88.0117,14.2,5.13,311.4,-9999.0,'1111122,1111122,1111122' 
DISL,ioos:station:DISL:MBLA:1,2014-10-04T03:00:00Z,30.4367,-88.0117,14.2,5.05,296.7,-9999.0,'1111122,1111122,1111122' 
DISL,ioos:station:DISL:MBLA:1,2014-10-04T03:30:00Z,30.4367,-88.0117,14.2,6.12,299.4,-9999.0,'1111122,1111122,1111122' 
DISL,ioos:station:DISL:MBLA:1,2014-10-04T04:00:00Z,30.4367,-88.0117,14.2,7.34,309.6,-9999.0,'1111122,1111122,1111122' 
DISL,ioos:station:DISL:MBLA:1,2014-10-04T04:30:00Z,30.4367,-88.0117,14.2,10.04,333.4,-9999.0,'1111122,1111122,1111122' 
DISL,ioos:station:DISL:MBLA:1,2014-10-04T05:00:00Z,30.4367,-88.0117,14.2,9.94,335.3,-9999.0,'1111122,1111122,1111122' 
DISL,ioos:station:DISL:MBLA:1,2014-10-04T05:30:00Z,30.4367,-88.0117,14.2,9.3,345.1,-9999.0,'1111122,1111122,1111122' 
DISL,ioos:station:DISL:MBLA:1,2014-10-04T06:00:00Z,30.4367,-88.0117,14.2,8.27,345.3,-9999.0,'1111122,1111122,1111122' 
DISL,ioos:station:DISL:MBLA:1,2014-10-04T06:30:00Z,30.4367,-88.0117,14.2,7.94,343.9,-9999.0,'1111122,1111122,1111122' 
DISL,ioos:station:DISL:MBLA:1,2014-10-04T07:00:00Z,30.4367,-88.0117,14.2,7.96,343.2,-9999.0,'1111122,1111122,1111122' 
DISL,ioos:station:DISL:MBLA:1,2014-10-04T07:30:00Z,30.4367,-88.0117,14.2,7.55,343.5,-9999.0,'1111122,1111122,1111122' 
DISL,ioos:station:DISL:MBLA:1,2014-10-04T08:00:00Z,30.4367,-88.0117,14.2,7.87,343.3,-9999.0,'1111122,1111122,1111122' 
DISL,ioos:station:DISL:MBLA:1,2014-10-04T08:30:00Z,30.4367,-88.0117,14.2,7.46,338.8,-9999.0,'1111122,1111122,1111122' 
DISL,ioos:station:DISL:MBLA:1,2014-10-04T09:00:00Z,30.4367,-88.0117,14.2,6.95,330.7,-9999.0,'1111122,1111122,1111122' 
DISL,ioos:station:DISL:MBLA:1,2014-10-04T09:30:00Z,30.4367,-88.0117,14.2,7.97,321.5,-9999.0,'1111122,1111122,1111122' 
DISL,ioos:station:DISL:MBLA:1,2014-10-04T10:00:00Z,30.4367,-88.0117,14.2,10.2,328.8,-9999.0,'1111122,1111122,1111122' 
DISL,ioos:station:DISL:MBLA:1,2014-10-04T10:30:00Z,30.4367,-88.0117,14.2,10.4,339.5,-9999.0,'1111122,1111122,1111122' 
DISL,ioos:station:DISL:MBLA:1,2014-10-04T11:00:00Z,30.4367,-88.0117,14.2,11.12,351.0,-9999.0,'1111122,1111122,1111122' 
DISL,ioos:station:DISL:MBLA:1,2014-10-04T11:30:00Z,30.4367,-88.0117,14.2,11.89,347.1,-9999.0,'1111122,1111122,1111122' 
DISL,ioos:station:DISL:MBLA:1,2014-10-04T12:00:00Z,30.4367,-88.0117,14.2,12.53,356.3,-9999.0,'1111122,1111122,1111122' 
DISL,ioos:station:DISL:MBLA:1,2014-10-04T12:30:00Z,30.4367,-88.0117,14.2,13.05,356.8,-9999.0,'1111122,1111122,1111122' 
DISL,ioos:station:DISL:MBLA:1,2014-10-04T13:00:00Z,30.4367,-88.0117,14.2,12.33,355.4,-9999.0,'1111122,1111122,1111122' 
DISL,ioos:station:DISL:MBLA:1,2014-10-04T13:30:00Z,30.4367,-88.0117,14.2,12.13,353.8,-9999.0,'1111122,1111122,1111122' 
DISL,ioos:station:DISL:MBLA:1,2014-10-04T14:00:00Z,30.4367,-88.0117,14.2,12.48,354.1,-9999.0,'1111122,1111122,1111122' 
DISL,ioos:station:DISL:MBLA:1,2014-10-04T14:30:00Z,30.4367,-88.0117,14.2,11.49,353.7,-9999.0,'1111122,1111122,1111122' 
DISL,ioos:station:DISL:MBLA:1,2014-10-04T15:00:00Z,30.4367,-88.0117,14.2,10.19,358.3,-9999.0,'1111122,1111122,1111122' 
DISL,ioos:station:DISL:MBLA:1,2014-10-04T15:30:00Z,30.4367,-88.0117,14.2,10.61,0.349,-9999.0,'1111122,1111122,1111122' 
DISL,ioos:station:DISL:MBLA:1,2014-10-04T16:00:00Z,30.4367,-88.0117,14.2,10.04,355.5,-9999.0,'1111122,1111122,1111122' 
DISL,ioos:station:DISL:MBLA:1,2014-10-04T16:30:00Z,30.4367,-88.0117,14.2,10.19,351.6,-9999.0,'1111122,1111122,1111122' 
DISL,ioos:station:DISL:MBLA:1,2014-10-04T17:00:00Z,30.4367,-88.0117,14.2,10.8,352.2,-9999.0,'1111122,1111122,1111122' 
DISL,ioos:station:DISL:MBLA:1,2014-10-04T17:30:00Z,30.4367,-88.0117,14.2,8.9,358.1,-9999.0,'1111122,1111122,1111122' 
DISL,ioos:station:DISL:MBLA:1,2014-10-04T18:00:00Z,30.4367,-88.0117,14.2,8.63,347.6,-9999.0,'1111122,1111122,1111122' 
DISL,ioos:station:DISL:MBLA:1,2014-10-04T18:30:00Z,30.4367,-88.0117,14.2,9.42,353.8,-9999.0,'1111122,1111122,1111122' 
DISL,ioos:station:DISL:MBLA:1,2014-10-04T19:00:00Z,30.4367,-88.0117,14.2,9.16,341.1,-9999.0,'1111122,1111122,1111122' 
DISL,ioos:station:DISL:MBLA:1,2014-10-04T19:30:00Z,30.4367,-88.0117,14.2,8.77,337.4,-9999.0,'1111122,1111122,1111122' 
DISL,ioos:station:DISL:MBLA:1,2014-10-04T20:00:00Z,30.4367,-88.0117,14.2,9.11,337.0,-9999.0,'1111122,1111122,1111122' 
DISL,ioos:station:DISL:MBLA:1,2014-10-04T20:30:00Z,30.4367,-88.0117,14.2,9.25,337.3,-9999.0,'1111122,1111122,1111122' 
DISL,ioos:station:DISL:MBLA:1,2014-10-04T21:00:00Z,30.4367,-88.0117,14.2,8.34,340.2,-9999.0,'1111122,1111122,1111122' 
DISL,ioos:station:DISL:MBLA:1,2014-10-04T21:30:00Z,30.4367,-88.0117,14.2,9.08,328.0,-9999.0,'1111122,1111122,1111122' 
DISL,ioos:station:DISL:MBLA:1,2014-10-04T22:00:00Z,30.4367,-88.0117,14.2,10.45,342.7,-9999.0,'1111122,1111122,1111122' 
DISL,ioos:station:DISL:MBLA:1,2014-10-04T22:30:00Z,30.4367,-88.0117,14.2,9.66,332.4,-9999.0,'1111122,1111122,1111122' 
DISL,ioos:station:DISL:MBLA:1,2014-10-04T23:00:00Z,30.4367,-88.0117,14.2,9.06,328.5,-9999.0,'1111122,1111122,1111122' 
DISL,ioos:station:DISL:MBLA:1,2014-10-04T23:30:00Z,30.4367,-88.0117,14.2,7.89,332.0,-9999.0,'1111122,1111122,1111122' 
DISL,ioos:station:DISL:MBLA:1,2014-10-05T00:00:00Z,30.4367,-88.0117,14.2,7.39,343.2,-9999.0,'1111122,1111122,1111122' 
DISL,ioos:station:DISL:MBLA:1,2014-10-05T00:30:00Z,30.4367,-88.0117,14.2,7.2,335.1,-9999.0,'1111122,1111122,1111122' 
DISL,ioos:station:DISL:MBLA:1,2014-10-05T01:00:00Z,30.4367,-88.0117,14.2,6.66,330.5,-9999.0,'1111122,1111122,1111122' 
DISL,ioos:station:DISL:MBLA:1,2014-10-05T01:30:00Z,30.4367,-88.0117,14.2,7.07,329.9,-9999.0,'1111122,1111122,1111122' 
DISL,ioos:station:DISL:MBLA:1,2014-10-05T02:00:00Z,30.4367,-88.0117,14.2,6.46,329.2,-9999.0,'1111122,1111122,1111122' 
DISL,ioos:station:DISL:MBLA:1,2014-10-05T02:30:00Z,30.4367,-88.0117,14.2,5.88,324.5,-9999.0,'1111122,1111122,1111122' 
DISL,ioos:station:DISL:MBLA:1,2014-10-05T03:00:00Z,30.4367,-88.0117,14.2,4.83,321.1,-9999.0,'1111122,1111122,1111122' 
DISL,ioos:station:DISL:MBLA:1,2014-10-05T03:30:00Z,30.4367,-88.0117,14.2,5.89,326.6,-9999.0,'1111122,1111122,1111122' 